Weather observations for the past three days for
Atqasuk
| Date | Time (akdt) | Wind (mph) | Vis. (mi.) | Weather | Sky Cond. | Temperature (ºF) | Relative Humidity | Wind Chill (°F) | Heat Index (°F) | Pressure | Precipitation (in) | ||||||
|---|---|---|---|---|---|---|---|---|---|---|---|---|---|---|---|---|---|
| Air | Dwpt | 6 hour | altimeter (in) | sea level (mb) | 1 hr | 3 hr | 6 hr | ||||||||||
| Max. | Min. | ||||||||||||||||
| 06 | 13:56 | Calm | 10.00 | Overcast | OVC011 | 37 | 32 | 82% | 29.95 | 1014.7 | |||||||
| 06 | 12:56 | E 7 | 10.00 | Overcast | OVC009 | 36 | 32 | 86% | 31 | 29.95 | 1014.6 | ||||||
| 06 | 11:56 | NE 7 | 10.00 | Overcast | OVC009 | 36 | 32 | 86% | 31 | 29.95 | 1014.5 | ||||||
| 06 | 10:56 | E 6 | 10.00 | Overcast | OVC007 | 34 | 33.1 | 97% | 29 | 29.95 | 1014.7 | ||||||
| 06 | 08:56 | E 3 | 7.00 | Overcast | OVC005 | 33.1 | 33.1 | 100% | 29.96 | 1014.9 | |||||||
| 06 | 07:56 | E 8 | 10.00 | Overcast | OVC007 | 33.1 | 33.1 | 100% | 27 | 29.95 | 1014.7 | ||||||
| 06 | 06:56 | E 7 | 10.00 | Overcast | OVC005 | 32 | 32 | 100% | 26 | 29.95 | 1014.8 | ||||||
| 06 | 05:56 | E 7 | 10.00 | Overcast | OVC005 | 32 | 32 | 100% | 26 | 29.96 | 1015.1 | ||||||
| 06 | 04:56 | E 8 | 10.00 | Overcast | OVC005 | 30.9 | 30.9 | 100% | 24 | 29.96 | 1015.0 | ||||||
| 06 | 03:56 | E 6 | 10.00 | Fair | CLR | 30 | 30 | 34 | 30 | 100% | 25 | 29.96 | 1015.0 | ||||
| 06 | 02:56 | E 7 | 10.00 | Fair | CLR | 30.9 | 30 | 96% | 25 | 29.96 | 1015.1 | ||||||
| 06 | 01:56 | E 8 | 10.00 | Fair | CLR | 32 | 30.9 | 96% | 25 | 29.97 | 1015.2 | ||||||
| 06 | 00:56 | E 14 | 10.00 | Mostly Cloudy | BKN008 | 33.1 | 32 | 96% | 24 | 29.97 | 1015.3 | ||||||
| 05 | 23:56 | E 14 | 10.00 | Mostly Cloudy | BKN011 | 33.1 | 32 | 96% | 24 | 29.97 | 1015.5 | ||||||
| 05 | 22:56 | E 12 | 9.00 | Overcast | BKN009 OVC013 | 34 | 32 | 92% | 26 | 29.97 | 1015.3 | ||||||
| 05 | 21:56 | E 15 | 10.00 | Overcast | OVC006 | 34 | 33.1 | 39 | 34 | 97% | 25 | 29.97 | 1015.3 | ||||
| 05 | 20:56 | E 16 | 10.00 | Overcast | OVC008 | 34 | 33.1 | 97% | 24 | 29.97 | 1015.4 | ||||||
| 05 | 19:56 | E 18 | 10.00 | Overcast | OVC008 | 34 | 32 | 92% | 24 | 29.97 | 1015.4 | ||||||
| 05 | 18:56 | E 18 | 10.00 | Overcast | OVC008 | 35.1 | 33.1 | 93% | 25 | 29.97 | 1015.3 | ||||||
| 05 | 17:56 | E 20 | 10.00 | Overcast | OVC012 | 37 | 33.1 | 86% | 27 | 29.96 | 1015.1 | ||||||
| 05 | 16:56 | E 22 | 10.00 | Mostly Cloudy and Breezy | BKN016 | 39 | 33.1 | 79% | 29 | 29.97 | 1015.2 | ||||||
| 05 | 15:56 | E 20 | 10.00 | Overcast | OVC014 | 37 | 32 | 39 | 34 | 82% | 27 | 29.97 | 1015.4 | ||||
| 05 | 14:56 | E 24 G 30 | 10.00 | Overcast and Breezy | OVC012 | 37.9 | 33.1 | 83% | 28 | 29.98 | 1015.6 | ||||||
| 05 | 13:56 | E 21 | 10.00 | Overcast and Breezy | OVC014 | 37.9 | 33.1 | 83% | 28 | 29.99 | 1015.9 | ||||||
| 05 | 12:56 | E 21 | 10.00 | Overcast and Breezy | OVC012 | 37.9 | 33.1 | 83% | 28 | 29.99 | 1016.1 | ||||||
| 05 | 11:56 | E 22 G 26 | 10.00 | Overcast and Breezy | OVC010 | 36 | 33.1 | 89% | 25 | 30 | 1016.3 | ||||||
| 05 | 09:56 | E 22 | 10.00 | Overcast and Breezy | OVC004 | 34 | 33.1 | 34 | 32 | 97% | 23 | 30.02 | 1017.0 | ||||
| 05 | 08:56 | E 15 | 7.00 | Overcast | OVC004 | 33.1 | 32 | 96% | 24 | 30.03 | 1017.5 | ||||||
| 05 | 07:56 | E 22 G 29 | 10.00 | Overcast and Breezy | OVC006 | 33.1 | 30.9 | 92% | 22 | 30.03 | 1017.4 | ||||||
| 05 | 06:56 | E 22 G 26 | 10.00 | Overcast and Breezy | OVC006 | 33.1 | 30.9 | 92% | 22 | 30.05 | 1018.1 | ||||||
| 05 | 05:56 | E 20 G 30 | 10.00 | Overcast | OVC006 | 32 | 30.9 | 96% | 21 | 30.07 | 1018.7 | ||||||
| 05 | 04:56 | E 16 | 10.00 | Overcast | OVC006 | 32 | 30.9 | 96% | 22 | 30.07 | 1018.9 | ||||||
| 05 | 03:56 | E 22 G 26 | 10.00 | Overcast and Breezy | OVC006 | 32 | 30.9 | 35.1 | 32 | 96% | 20 | 30.09 | 1019.3 | ||||
| 05 | 02:56 | E 20 | 10.00 | Overcast | OVC006 | 33.1 | 30.9 | 92% | 22 | 30.09 | 1019.6 | ||||||
| 05 | 01:56 | E 21 G 25 | 10.00 | Overcast and Breezy | OVC006 | 33.1 | 32 | 96% | 22 | 30.1 | 1019.6 | ||||||
| 05 | 00:56 | E 21 | 10.00 | Overcast and Breezy | OVC006 | 34 | 32 | 92% | 23 | 30.11 | 1020.1 | ||||||
| 04 | 23:56 | E 21 | 10.00 | Overcast and Breezy | OVC006 | 34 | 33.1 | 97% | 23 | 30.12 | 1020.5 | ||||||
| 04 | 22:56 | E 22 | 10.00 | Overcast and Breezy | OVC008 | 34 | 32 | 92% | 23 | 30.12 | 1020.4 | ||||||
| 04 | 21:56 | E 16 G 25 | 10.00 | Overcast | OVC008 | 34 | 32 | 37 | 34 | 92% | 24 | 30.13 | 1020.9 | ||||
| 04 | 20:56 | E 15 | 10.00 | Overcast | OVC012 | 35.1 | 32 | 89% | 26 | 30.13 | 1020.8 | ||||||
| 04 | 19:56 | E 17 | 10.00 | Overcast | OVC012 | 36 | 33.1 | 89% | 27 | 30.14 | 1021.1 | ||||||
| 04 | 18:56 | E 17 G 22 | 10.00 | Overcast | OVC010 | 37 | 33.1 | 86% | 28 | 30.14 | 1020.9 | ||||||
| 04 | 17:56 | E 16 | 10.00 | Overcast | OVC010 | 37 | 33.1 | 86% | 28 | 30.14 | 1021.0 | ||||||
| 04 | 16:56 | E 16 | 10.00 | Overcast | OVC008 | 36 | 33.1 | 89% | 27 | 30.14 | 1021.2 | ||||||
| 04 | 15:56 | E 17 G 24 | 10.00 | Overcast | OVC012 | 37 | 32 | 37.9 | 33.1 | 82% | 28 | 30.15 | 1021.3 | ||||
| 04 | 14:56 | E 17 G 25 | 10.00 | Overcast | FEW009 OVC016 | 37 | 32 | 82% | 28 | 30.15 | 1021.3 | ||||||
| 04 | 13:56 | E 17 | 10.00 | Overcast | OVC014 | 36 | 30 | 79% | 27 | 30.15 | 1021.5 | ||||||
| 04 | 12:56 | E 17 G 25 | 10.00 | Overcast | OVC012 | 35.1 | 30 | 82% | 26 | 30.16 | 1021.6 | ||||||
| 04 | 11:56 | E 17 | 10.00 | Overcast | OVC012 | 34 | 30 | 85% | 24 | 30.15 | 1021.3 | ||||||
| 04 | 10:56 | E 20 | 10.00 | Overcast | OVC010 | 34 | 30 | 85% | 23 | 30.14 | 1021.0 | ||||||
| 04 | 09:56 | E 16 G 25 | 10.00 | Overcast | OVC010 | 33.1 | 30 | 34 | 33.1 | 89% | 23 | 30.12 | 1020.5 | ||||
| 04 | 08:56 | E 20 G 25 | 10.00 | Overcast | OVC010 | 33.1 | 30.9 | 92% | 22 | 30.11 | 1020.1 | ||||||
| 04 | 07:56 | NE 17 | 10.00 | Overcast | OVC014 | 33.1 | 30.9 | 92% | 23 | 30.1 | 1019.8 | ||||||
| 04 | 06:56 | E 21 G 24 | 10.00 | Overcast and Breezy | OVC014 | 34 | 30.9 | 89% | 23 | 30.09 | 1019.4 | ||||||
| 04 | 05:56 | E 15 | 10.00 | Overcast | OVC008 | 33.1 | 30.9 | 92% | 24 | 30.08 | 1019.1 | ||||||
| 04 | 04:56 | E 18 | 10.00 | Overcast | OVC010 | 33.1 | 32 | 96% | 23 | 30.07 | 1018.6 | ||||||
| 04 | 03:56 | E 16 | 9.00 | Light Snow | BKN008 BKN016 OVC022 | 33.1 | 32 | 35.1 | 30.9 | 96% | 23 | 30.06 | 1018.2 | ||||
| 04 | 02:56 | NE 13 | 10.00 | Mostly Cloudy | SCT021 BKN030 | 33.1 | 30.9 | 92% | 25 | 30.05 | 1018.0 | ||||||
| 04 | 01:56 | NE 13 | 10.00 | Overcast | OVC021 | 33.1 | 32 | 96% | 25 | 30.05 | 1018.1 | ||||||
| 04 | 00:56 | NE 13 | 10.00 | Mostly Cloudy | BKN021 | 32 | 30.9 | 96% | 23 | 30.04 | 1017.8 | ||||||
| 03 | 23:56 | NE 13 | 10.00 | Partly Cloudy | SCT023 | 32 | 30.9 | 96% | 23 | 30.04 | 1017.8 | ||||||
| 03 | 22:56 | E 15 | 10.00 | Overcast | OVC025 | 35.1 | 33.1 | 93% | 26 | 30.04 | 1017.5 | ||||||
| 03 | 21:56 | E 9 | 10.00 | Overcast | OVC025 | 35.1 | 30.9 | 37.9 | 34 | 85% | 29 | 30.04 | 1017.6 | ||||
| 03 | 20:56 | E 8 | 10.00 | Fair | CLR | 35.1 | 30 | 82% | 29 | 30.03 | 1017.4 | ||||||
| 03 | 19:56 | E 12 | 10.00 | Mostly Cloudy | BKN022 | 37 | 30 | 76% | 30 | 30.03 | 1017.4 | ||||||
| 03 | 18:56 | E 9 | 10.00 | Partly Cloudy | SCT022 | 37 | 28.9 | 73% | 31 | 30.04 | 1017.6 | ||||||
| 03 | 17:56 | E 10 | 10.00 | Mostly Cloudy | BKN020 | 36 | 28.9 | 76% | 29 | 30.05 | 1017.9 | ||||||
| 03 | 15:56 | NE 8 | 10.00 | Overcast | OVC018 | 36 | 30 | 37 | 32 | 79% | 30 | 30.05 | 1018.2 | ||||
| 03 | 14:56 | Calm | 10.00 | Overcast | OVC016 | 36 | 30 | 79% | 30.06 | 1018.4 | |||||||
| Date | Time (akdt) | Wind (mph) | Vis. (mi.) | Weather | Sky Cond. | Air | Dwpt | Max. | Min. | Relative Humidity | Wind Chill (°F) | Heat Index (°F) | altimeter (in) | sea level (mb) | 1 hr | 3 hr | 6 hr |
| 6 hour | |||||||||||||||||
| Temperature (ºF) | Pressure | Precipitation (in) | |||||||||||||||